Location: *
(39.6167°S, 171.5333°W)
Time: 21:20:00
(UTC+00:00)

IRAS Rocket - Pass Details

Date: 13 May 2021
Orbit: 847 x 878 km, 100.1° (Epoch: 15 June)

Event Time Altitude Azimuth Distance (km) Brightness Sun altitude
Rises 16:34:20 0° 165° (SSE) 3,448 7.5 -20.8°
Reaches altitude 10° 16:36:43 10° 164° (SSE) 2,507 6.7 -20.4°
Maximum altitude 16:42:18 86° 74° (ENE) 868 4.2 -19.3°
Drops below altitude 10° 16:47:50 10° 345° (NNW) 2,488 6.6 -18.2°
Sets 16:50:11 0° 344° (NNW) 3,421 7.3 -17.8°
